| time (UTC) | temp C | wind direction | speed KPH | gust KPH | rain 1hr cm | rain 24hr cm | rain mn cm | humidity % | barometer mb |
| 20260507144613 | 22 | 180 | 1.6 | 6.4 | 0.00 | 0.03 | 0.00 | 58 | 1010.2 |
| 20260507143052 | 21 | 242 | 3.2 | 8.0 | 0.00 | 0.03 | 0.00 | 59 | 1010.4 |
| 20260507141609 | 21 | 225 | 3.2 | 9.7 | 0.00 | 0.03 | 0.00 | 59 | 1010.4 |
| 20260507140048 | 21 | 232 | 4.8 | 12.9 | 0.00 | 0.03 | 0.00 | 60 | 1010.7 |
| 20260507134548 | 21 | 251 | 4.8 | 11.3 | 0.00 | 0.03 | 0.00 | 61 | 1010.8 |
| 20260507133042 | 21 | 175 | 4.8 | 11.3 | 0.00 | 0.03 | 0.00 | 63 | 1011.2 |
| 20260507131543 | 21 | 209 | 3.2 | 11.3 | 0.00 | 0.03 | 0.00 | 64 | 1011.1 |
| 20260507130040 | 21 | 162 | 3.2 | 12.9 | 0.00 | 0.03 | 0.00 | 62 | 1011.1 |
| 20260507124539 | 21 | 212 | 6.4 | 11.3 | 0.00 | 0.03 | 0.00 | 62 | 1011.3 |
| 20260507123037 | 21 | 216 | 4.8 | 11.3 | 0.00 | 0.03 | 0.00 | 61 | 1011.5 |
| 20260507121536 | 21 | 244 | 6.4 | 11.3 | 0.00 | 0.03 | 0.00 | 61 | 1011.6 |
| 20260507120034 | 21 | 221 | 3.2 | 12.9 | 0.00 | 0.03 | 0.00 | 60 | 1011.8 |
| 20260507114535 | 22 | 246 | 6.4 | 11.3 | 0.00 | 0.03 | 0.00 | 57 | 1011.8 |
| 20260507113029 | 21 | 265 | 6.4 | 14.5 | 0.00 | 0.03 | 0.00 | 60 | 1011.9 |
| 20260507111628 | 21 | 188 | 4.8 | 11.3 | 0.00 | 0.03 | 0.00 | 63 | 1012.0 |
| 20260507110027 | 20 | 219 | 4.8 | 11.3 | 0.00 | 0.03 | 0.00 | 63 | 1012.2 |
| 20260507104527 | 21 | 254 | 3.2 | 12.9 | 0.00 | 0.03 | 0.00 | 63 | 1012.4 |
| 20260507103025 | 20 | 219 | 3.2 | 14.5 | 0.00 | 0.03 | 0.00 | 65 | 1012.7 |
| 20260507101527 | 20 | 205 | 8.0 | 16.1 | 0.00 | 0.03 | 0.00 | 66 | 1012.9 |
| 20260507100033 | 20 | 252 | 4.8 | 19.3 | 0.00 | 0.03 | 0.00 | 67 | 1012.8 |
| 20260507094535 | 21 | 200 | 6.4 | 16.1 | 0.00 | 0.03 | 0.00 | 61 | 1012.6 |
| 20260507093027 | 21 | 137 | 3.2 | 8.0 | 0.00 | 0.03 | 0.00 | 58 | 1012.4 |
| 20260507091526 | 21 | 288 | 1.6 | 6.4 | 0.00 | 0.03 | 0.00 | 61 | 1012.3 |
| 20260507090019 | 20 | 109 | 0.0 | 6.4 | 0.00 | 0.03 | 0.00 | 63 | 1012.2 |
| 20260507084522 | 20 | 210 | 3.2 | 6.4 | 0.00 | 0.03 | 0.00 | 63 | 1012.6 |
| 20260507083012 | 20 | 305 | 0.0 | 4.8 | 0.00 | 0.03 | 0.00 | 63 | 1012.7 |
| 20260507081518 | 19 | 138 | 1.6 | 6.4 | 0.00 | 0.03 | 0.00 | 67 | 1012.6 |
| 20260507080007 | 18 | 248 | 1.6 | 6.4 | 0.00 | 0.03 | 0.00 | 68 | 1012.6 |
| 20260507074507 | 18 | 313 | 1.6 | 9.7 | 0.00 | 0.03 | 0.00 | 68 | 1012.9 |
| 20260507073007 | 18 | 205 | 0.0 | 8.0 | 0.00 | 0.03 | 0.00 | 67 | 1013.0 |
| 20260507071502 | 18 | 278 | 0.0 | 6.4 | 0.00 | 0.03 | 0.00 | 69 | 1012.8 |
| 20260507064555 | 17 | 22 | 3.2 | 9.7 | 0.00 | 0.03 | 0.00 | 73 | 1012.6 |
| 20260507063054 | 17 | 10 | 4.8 | 9.7 | 0.00 | 0.03 | 0.00 | 75 | 1012.3 |
| 20260507061549 | 16 | 26 | 1.6 | 6.4 | 0.00 | 0.03 | 0.00 | 77 | 1012.5 |
| 20260507060056 | 16 | 351 | 3.2 | 6.4 | 0.00 | 0.03 | 0.00 | 78 | 1012.6 |
| 20260507054549 | 15 | 351 | 1.6 | 8.0 | 0.00 | 0.03 | 0.00 | 79 | 1012.7 |
| 20260507053051 | 15 | 34 | 1.6 | 6.4 | 0.00 | 0.03 | 0.00 | 80 | 1012.7 |
| 20260507051542 | 15 | 15 | 0.0 | 4.8 | 0.00 | 0.03 | 0.00 | 80 | 1012.7 |
| 20260507050042 | 15 | 360 | 0.0 | 4.8 | 0.00 | 0.03 | 0.00 | 80 | 1012.6 |
| 20260507044554 | 15 | 360 | 1.6 | 6.4 | 0.00 | 0.03 | 0.00 | 81 | 1012.5 |
| 20260507043040 | 15 | 31 | 1.6 | 9.7 | 0.00 | 0.03 | 0.00 | 81 | 1012.3 |
| 20260507041539 | 15 | 12 | 3.2 | 9.7 | 0.00 | 0.03 | 0.00 | 82 | 1012.3 |
| 20260507040039 | 15 | 355 | 1.6 | 9.7 | 0.00 | 0.03 | 0.00 | 81 | 1012.1 |
| 20260507034541 | 15 | 26 | 1.6 | 9.7 | 0.00 | 0.03 | 0.00 | 81 | 1012.1 |
| 20260507033037 | 15 | 348 | 3.2 | 8.0 | 0.00 | 0.03 | 0.00 | 81 | 1012.1 |
| 20260507031537 | 15 | 24 | 3.2 | 8.0 | 0.00 | 0.03 | 0.00 | 80 | 1012.0 |
| 20260507030035 | 15 | 5 | 0.0 | 4.8 | 0.00 | 0.03 | 0.00 | 81 | 1012.0 |
| 20260507024540 | 15 | 52 | 0.0 | 3.2 | 0.00 | 0.03 | 0.00 | 80 | 1012.1 |
| 20260507023033 | 15 | 33 | 1.6 | 4.8 | 0.00 | 0.03 | 0.00 | 80 | 1012.3 |
| 20260507021532 | 15 | 63 | 0.0 | 4.8 | 0.00 | 0.03 | 0.00 | 80 | 1012.3 |
| 20260507020042 | 15 | 72 | 0.0 | 3.2 | 0.00 | 0.03 | 0.00 | 80 | 1012.4 |
| 20260507014534 | 15 | 70 | 0.0 | 3.2 | 0.00 | 0.03 | 0.00 | 82 | 1012.4 |
| 20260507013031 | 15 | 71 | 0.0 | 3.2 | 0.00 | 0.03 | 0.00 | 84 | 1012.5 |
| 20260507011528 | 15 | 71 | 0.0 | 0.0 | 0.00 | 0.03 | 0.00 | 85 | 1012.5 |
| 20260507010029 | 15 | 71 | 0.0 | 3.2 | 0.00 | 0.03 | 0.00 | 86 | 1012.4 |
| 20260507004531 | 15 | 360 | 0.0 | 1.6 | 0.00 | 0.03 | 0.00 | 86 | 1012.5 |
| 20260507003029 | 15 | 72 | 0.0 | 4.8 | 0.00 | 0.03 | 0.00 | 86 | 1012.4 |
| 20260507001534 | 15 | 360 | 1.6 | 4.8 | 0.00 | 0.03 | 0.00 | 86 | 1012.4 |
| 20260507000024 | 15 | 360 | 0.0 | 3.2 | 0.00 | 0.03 | 0.00 | 86 | 1012.5 |
| 20260506234522 | 15 | 360 | 1.6 | 3.2 | 0.00 | 0.03 | 0.00 | 86 | 1012.6 |
| 20260506233019 | 15 | 360 | 0.0 | 0.0 | 0.00 | 0.03 | 0.00 | 86 | 1012.8 |
| 20260506231517 | 15 | 360 | 0.0 | 1.6 | 0.00 | 0.03 | 0.00 | 85 | 1013.1 |
| 20260506230016 | 15 | 360 | 0.0 | 1.6 | 0.00 | 0.03 | 0.00 | 85 | 1013.2 |
| 20260506224515 | 15 | 117 | 0.0 | 0.0 | 0.00 | 0.03 | 0.00 | 85 | 1013.3 |
| 20260506223012 | 15 | 360 | 0.0 | 3.2 | 0.00 | 0.03 | 0.00 | 85 | 1013.5 |
| 20260506221512 | 15 | 360 | 0.0 | 4.8 | 0.00 | 0.03 | 0.00 | 85 | 1013.5 |
| 20260506220009 | 15 | 360 | 0.0 | 3.2 | 0.00 | 0.03 | 0.00 | 86 | 1013.6 |
| 20260506214508 | 15 | 360 | 0.0 | 1.6 | 0.00 | 0.03 | 0.03 | 85 | 1013.6 |
| 20260506213011 | 15 | 360 | 0.0 | 1.6 | 0.00 | 0.03 | 0.03 | 85 | 1013.5 |
| 20260506211507 | 15 | 360 | 1.6 | 3.2 | 0.03 | 0.03 | 0.03 | 85 | 1013.4 |
| 20260506210006 | 15 | 360 | 0.0 | 1.6 | 0.03 | 0.03 | 0.03 | 85 | 1013.5 |
| 20260506204506 | 15 | 360 | 0.0 | 3.2 | 0.03 | 0.03 | 0.03 | 85 | 1013.5 |
| 20260506203005 | 16 | 360 | 0.0 | 0.0 | 0.03 | 0.03 | 0.03 | 84 | 1013.8 |
| 20260506201507 | 16 | 360 | 0.0 | 3.2 | 0.00 | 0.00 | 0.00 | 82 | 1013.9 |
| 20260506200003 | 16 | 360 | 0.0 | 1.6 | 0.00 | 0.00 | 0.00 | 79 | 1014.0 |
| 20260506194502 | 17 | 360 | 0.0 | 3.2 | 0.00 | 0.00 | 0.00 | 75 | 1014.2 |
| 20260506193003 | 17 | 360 | 1.6 | 4.8 | 0.00 | 0.00 | 0.00 | 74 | 1014.3 |
| 20260506191501 | 17 | 360 | 0.0 | 3.2 | 0.00 | 0.00 | 0.00 | 73 | 1014.0 |
| 20260506190100 | 17 | 360 | 0.0 | 1.6 | 0.00 | 0.00 | 0.00 | 72 | 1013.5 |
| 20260506184600 | 17 | 209 | 0.0 | 3.2 | 0.00 | 0.00 | 0.00 | 72 | 1013.3 |
| 20260506183106 | 17 | 360 | 1.6 | 3.2 | 0.00 | 0.00 | 0.00 | 71 | 1013.1 |
| 20260506181602 | 17 | 360 | 0.0 | 0.0 | 0.00 | 0.00 | 0.00 | 72 | 1013.0 |
| 20260506180100 | 17 | 360 | 0.0 | 4.8 | 0.00 | 0.00 | 0.00 | 72 | 1012.9 |
| 20260506174557 | 17 | 360 | 0.0 | 3.2 | 0.00 | 0.00 | 0.00 | 73 | 1012.7 |
| 20260506173059 | 17 | 360 | 0.0 | 6.4 | 0.00 | 0.00 | 0.00 | 74 | 1012.7 |
| 20260506171559 | 17 | 200 | 1.6 | 6.4 | 0.00 | 0.00 | 0.00 | 73 | 1012.7 |
| 20260506170059 | 17 | 205 | 1.6 | 6.4 | 0.00 | 0.00 | 0.00 | 72 | 1012.8 |
| 20260506164601 | 17 | 360 | 0.0 | 6.4 | 0.00 | 0.00 | 0.00 | 72 | 1012.7 |
| 20260506163104 | 17 | 360 | 0.0 | 4.8 | 0.00 | 0.00 | 0.00 | 72 | 1012.6 |
| 20260506161605 | 17 | 215 | 1.6 | 8.0 | 0.00 | 0.00 | 0.00 | 72 | 1012.7 |
| 20260506160054 | 18 | 211 | 1.6 | 4.8 | 0.00 | 0.00 | 0.00 | 71 | 1012.8 |
| 20260506154610 | 18 | 360 | 3.2 | 8.0 | 0.00 | 0.00 | 0.00 | 69 | 1012.8 |
| 20260506153052 | 18 | 236 | 3.2 | 8.0 | 0.00 | 0.00 | 0.00 | 70 | 1013.0 |
| 20260506151551 | 18 | 360 | 6.4 | 12.9 | 0.00 | 0.00 | 0.00 | 69 | 1012.9 |
| 20260506150053 | 18 | 360 | 3.2 | 12.9 | 0.00 | 0.00 | 0.00 | 70 | 1013.0 |